Weather History for KSGF - August, 2014

Change the Weather History Date:

Saturday, August 16, 2014

  Actual Average Record
Temperature  
Mean Temperature 81 °F 78 °F  
Max Temperature 92 °F 90 °F 105 °F (1936)
Min Temperature 70 °F 67 °F 48 °F (1992)
Degree Days  
Heating Degree Days 0 0  
Month to date heating degree days 0 0  
Since 1 June heating degree days 0 9  
Since 1 July heating degree days 0 0  
Cooling Degree Days 16 13  
Month to date cooling degree days 191 221  
Year to date cooling degree days 970 1009  
Since 1 June cooling degree days 777 894  
Growing Degree Days 31 (Base 50)    
Moisture  
Dew Point 68 °F    
Average Humidity 66    
Maximum Humidity 84    
Minimum Humidity 47    
Precipitation  
Precipitation 0.05 in 0.11 in 1.38 in (1930)
Month to date precipitation 1.17 1.69  
Year to date precipitation 21.18 28.25  
Snow  
Snow 0.00 in - - ()
Month to date snowfall 0.0  
Since 1 June snowfall 0.0  
Since 1 July snowfall 0.0  
Snow Depth 0.00 in    
Sea Level Pressure  
Sea Level Pressure 29.86 in    
Wind  
Wind Speed 12 mph (SSW)    
Max Wind Speed 23 mph    
Max Gust Speed 28 mph    
Visibility 10 miles    
Events Rain    
T = Trace of Precipitation, MM = Missing Value Source: NWS Daily Summary

Daily Weather History Graph

Daily Weather History Graph

Search for Another Location

Airport or City:

Trip Planner

Search our weather history database for the weather conditions in past years. The results will help you decide how hot, cold, wet, or windy it might be!

Date:

Astronomy

Aug. 16, 2014 Rise Set
Actual Time 6:30 AM CDT 8:04 PM CDT
Civil Twilight 6:03 AM CDT 8:31 PM CDT
Nautical Twilight 5:29 AM CDT 9:04 PM CDT
Astronomical Twilight 4:54 AM CDT 9:39 PM CDT
Moon 11:58 PM CDT (8/16) 1:07 PM CDT (8/16)
Length of Visible Light 14h 28m
Length of Day
13h 33m
Waning Gibbous, 58% of the Moon is Illuminated
Aug 16
Waning Gibbous
Aug 17
Last Quarter
Aug 25
New
Sep 2
First Quarter
Sep 8
Full

Hourly Weather History & Observations

Time (CDT) Temp. Heat Index Dew Point Humidity Pressure Visibility Wind Dir Wind Speed Gust Speed Precip Events Conditions
12:52 AM 73.9 °F - 64.9 °F 73% 29.89 in 10.0 mi South 9.2 mph - N/A   Clear
1:52 AM 73.9 °F - 64.9 °F 73% 29.87 in 10.0 mi South 12.7 mph - N/A   Clear
2:52 AM 73.9 °F - 64.9 °F 73% 29.88 in 10.0 mi South 11.5 mph - 0.00 in Rain Light Rain
3:52 AM 73.0 °F - 64.0 °F 73% 29.87 in 10.0 mi South 11.5 mph - 0.00 in   Overcast
4:52 AM 73.0 °F - 64.9 °F 76% 29.86 in 10.0 mi SSE 13.8 mph - 0.00 in Rain Light Rain
5:52 AM 71.1 °F - 64.9 °F 81% 29.85 in 10.0 mi SSE 16.1 mph - 0.00 in Rain Light Rain
6:52 AM 71.1 °F - 64.0 °F 78% 29.89 in 10.0 mi South 10.4 mph - 0.00 in Rain Light Rain
7:52 AM 71.1 °F - 64.9 °F 81% 29.90 in 10.0 mi South 11.5 mph - 0.05 in   Overcast
8:52 AM 71.1 °F - 66.0 °F 84% 29.89 in 10.0 mi SSE 15.0 mph - 0.00 in   Overcast
9:52 AM 73.9 °F - 64.9 °F 73% 29.88 in 10.0 mi South 19.6 mph - N/A   Mostly Cloudy
10:52 AM 77.0 °F - 66.9 °F 71% 29.88 in 10.0 mi South 16.1 mph - N/A   Mostly Cloudy
11:52 AM 80.1 °F 82.7 °F 68.0 °F 67% 29.88 in 10.0 mi SSW 16.1 mph - N/A   Clear
12:52 PM 86.0 °F 90.1 °F 69.1 °F 57% 29.85 in 10.0 mi SW 18.4 mph - N/A   Clear
1:52 PM 89.1 °F 94.1 °F 70.0 °F 53% 29.83 in 10.0 mi SSW 13.8 mph - N/A   Clear
2:52 PM 90.0 °F 96.4 °F 71.1 °F 54% 29.82 in 10.0 mi SSW 15.0 mph - N/A   Clear
3:52 PM 90.0 °F 94.5 °F 69.1 °F 50% 29.81 in 10.0 mi WSW 11.5 mph - N/A   Scattered Clouds
4:52 PM 91.0 °F 95.2 °F 68.0 °F 47% 29.81 in 10.0 mi SW 12.7 mph - N/A   Scattered Clouds
5:52 PM 89.1 °F 94.1 °F 70.0 °F 53% 29.80 in 10.0 mi SW 11.5 mph - N/A   Mostly Cloudy
6:52 PM 86.0 °F 90.7 °F 70.0 °F 59% 29.80 in 10.0 mi SW 8.1 mph - N/A   Mostly Cloudy
7:52 PM 84.0 °F 89.0 °F 71.1 °F 65% 29.81 in 10.0 mi SSW 11.5 mph - N/A   Scattered Clouds
8:52 PM 81.0 °F 84.4 °F 70.0 °F 69% 29.81 in 10.0 mi SW 11.5 mph - N/A   Clear
9:52 PM 80.1 °F 83.2 °F 70.0 °F 71% 29.84 in 10.0 mi WSW 6.9 mph - N/A   Clear
10:52 PM 79.0 °F - 71.1 °F 77% 29.87 in 10.0 mi WNW 4.6 mph - N/A   Scattered Clouds
11:01 PM 79.0 °F - 71.1 °F 77% 29.90 in 10.0 mi NW 4.6 mph - N/A   Mostly Cloudy
11:52 PM 78.8 °F - 69.8 °F 74% 29.91 in 10.0 mi NNW 3.5 mph - N/A   Mostly Cloudy